Torna al catalogo

FLOCK 4G 8

AttivoScienzaSSO
NORAD 62613·PAYLOAD·🇺🇸 United States

Lanciato Jan 14, 2025 da Vandenberg Space Force Base

Loading…

Prossimi Passaggi (prossime 24 ore)

TLE

AggiornatoSource: CelesTrak SupGP

Epoca: Sep 14, 2026, 16:45 UTC

1 62613C 25009E   26257.69799769  .00004969  00000+0  16457-3 0  2578
2 62613  97.3955 339.3985 0003788  18.3494 221.8409 15.31351289    18

Traccia FLOCK 4G 8 in tempo reale con AllMySat

Download on the App Store